Time,TemperatureF,DewpointF,PressureIn,WindDirection,WindDirectionDegrees,WindSpeedMPH,WindSpeedGustMPH,Humidity,HourlyPrecipIn,Conditions,Clouds,dailyrainin,SoftwareType,DateUTC
2013-07-14 00:01:00,71.8,70.0,30.36,NE,45,0.0,0.0,94,0.00,,---,0.00,VWS V14.00,2013-07-14 04:01:00,
2013-07-14 00:06:00,71.6,70.1,30.36,NE,45,0.0,0.0,95,0.00,,---,0.00,VWS V14.00,2013-07-14 04:06:00,
2013-07-14 00:11:00,71.6,70.1,30.36,NE,45,0.0,0.0,95,0.00,,---,0.00,VWS V14.00,2013-07-14 04:11:00,
2013-07-14 00:16:00,71.8,70.3,30.36,NE,45,0.0,0.0,95,0.00,,---,0.00,VWS V14.00,2013-07-14 04:16:00,
2013-07-14 00:21:00,71.8,70.3,30.36,NE,45,0.0,0.0,95,0.00,,---,0.00,VWS V14.00,2013-07-14 04:21:00,
2013-07-14 00:26:00,71.8,70.3,30.36,NE,45,0.0,0.0,95,0.00,,---,0.00,VWS V14.00,2013-07-14 04:26:00,
2013-07-14 00:31:00,71.8,70.3,30.36,NE,45,0.0,0.0,95,0.00,,---,0.00,VWS V14.00,2013-07-14 04:31:00,
2013-07-14 00:36:00,71.8,70.3,30.36,NE,45,0.0,0.0,95,0.00,,---,0.00,VWS V14.00,2013-07-14 04:36:00,
2013-07-14 00:41:00,71.8,70.3,30.33,NE,45,0.0,0.0,95,0.00,,---,0.00,VWS V14.00,2013-07-14 04:41:00,
2013-07-14 00:46:00,71.8,70.3,30.33,NE,45,0.0,0.0,95,0.00,,---,0.00,VWS V14.00,2013-07-14 04:46:00,
2013-07-14 00:51:00,71.6,70.1,30.33,NE,45,0.0,0.0,95,0.00,,---,0.00,VWS V14.00,2013-07-14 04:51:00,
2013-07-14 00:56:00,71.6,70.1,30.33,NE,45,0.0,0.0,95,0.00,,---,0.00,VWS V14.00,2013-07-14 04:56:00,
2013-07-14 01:01:00,71.8,70.3,30.33,NE,45,0.0,0.0,95,0.00,,---,0.00,VWS V14.00,2013-07-14 05:01:00,
2013-07-14 01:06:00,72.0,70.4,30.33,SSW,202,0.0,0.9,95,0.00,,---,0.00,VWS V14.00,2013-07-14 05:06:00,
2013-07-14 01:11:00,72.1,70.6,30.33,NW,315,0.0,0.0,95,0.00,,---,0.00,VWS V14.00,2013-07-14 05:11:00,
2013-07-14 01:16:00,72.1,70.6,30.33,NNE,22,0.0,0.0,95,0.00,,---,0.00,VWS V14.00,2013-07-14 05:16:00,
2013-07-14 01:21:00,72.3,70.8,30.33,ENE,68,0.0,0.0,95,0.00,,---,0.00,VWS V14.00,2013-07-14 05:21:00,
2013-07-14 01:26:00,72.3,70.8,30.33,NE,45,0.0,0.0,95,0.00,,---,0.00,VWS V14.00,2013-07-14 05:26:00,
2013-07-14 01:31:00,72.1,70.6,30.33,ENE,68,0.0,0.0,95,0.00,,---,0.00,VWS V14.00,2013-07-14 05:31:00,
2013-07-14 01:36:00,72.3,70.8,30.33,SE,135,0.0,0.0,95,0.00,,---,0.00,VWS V14.00,2013-07-14 05:36:00,
2013-07-14 01:41:00,72.3,70.8,30.33,NNW,338,2.7,2.7,95,0.00,,---,0.00,VWS V14.00,2013-07-14 05:41:00,
2013-07-14 01:46:00,72.3,70.8,30.33,NW,315,0.0,0.0,95,0.00,,---,0.00,VWS V14.00,2013-07-14 05:46:00,
2013-07-14 01:51:00,72.3,70.8,30.33,WNW,292,0.0,0.0,95,0.00,,---,0.00,VWS V14.00,2013-07-14 05:51:00,
2013-07-14 01:56:00,72.3,70.8,30.36,NE,45,0.0,0.0,95,0.00,,---,0.00,VWS V14.00,2013-07-14 05:56:00,
2013-07-14 02:01:00,72.3,70.8,30.36,NE,45,0.0,0.0,95,0.00,,---,0.00,VWS V14.00,2013-07-14 06:01:00,
2013-07-14 02:06:00,72.3,70.8,30.36,NE,45,0.0,0.0,95,0.00,,---,0.00,VWS V14.00,2013-07-14 06:06:00,
2013-07-14 02:11:00,72.3,70.8,30.36,NE,45,0.0,0.0,95,0.00,,---,0.00,VWS V14.00,2013-07-14 06:11:00,
2013-07-14 02:16:00,72.3,70.8,30.36,NE,45,0.0,0.0,95,0.00,,---,0.00,VWS V14.00,2013-07-14 06:16:00,
2013-07-14 02:21:00,72.3,70.8,30.36,NNW,338,0.0,0.0,95,0.00,,---,0.00,VWS V14.00,2013-07-14 06:21:00,
2013-07-14 02:26:00,72.3,70.8,30.33,NNW,338,0.0,0.0,95,0.00,,---,0.00,VWS V14.00,2013-07-14 06:26:00,
2013-07-14 02:31:00,72.3,70.8,30.33,NNW,338,0.0,0.0,95,0.00,,---,0.00,VWS V14.00,2013-07-14 06:31:00,
2013-07-14 02:36:00,72.3,70.8,30.33,NNW,338,0.0,0.0,95,0.00,,---,0.00,VWS V14.00,2013-07-14 06:36:00,
2013-07-14 02:41:00,72.3,70.8,30.33,NNW,338,0.0,0.0,95,0.00,,---,0.00,VWS V14.00,2013-07-14 06:41:00,
2013-07-14 02:46:00,72.1,70.6,30.33,NNW,338,0.0,0.0,95,0.00,,---,0.00,VWS V14.00,2013-07-14 06:46:00,
2013-07-14 02:51:00,72.1,70.6,30.33,NNW,338,0.0,0.0,95,0.00,,---,0.00,VWS V14.00,2013-07-14 06:51:00,
2013-07-14 02:56:00,72.1,70.6,30.33,North,0,0.0,0.0,95,0.00,,---,0.00,VWS V14.00,2013-07-14 06:56:00,
2013-07-14 03:01:00,72.1,70.6,30.33,North,0,0.0,0.0,95,0.00,,---,0.00,VWS V14.00,2013-07-14 07:01:00,
2013-07-14 03:06:00,72.1,70.6,30.33,North,0,0.0,0.0,95,0.00,,---,0.00,VWS V14.00,2013-07-14 07:06:00,
2013-07-14 03:11:00,72.1,70.6,30.33,North,0,0.0,0.0,95,0.00,,---,0.00,VWS V14.00,2013-07-14 07:11:00,
2013-07-14 03:16:00,72.0,70.4,30.33,North,0,0.0,0.0,95,0.00,,---,0.00,VWS V14.00,2013-07-14 07:16:00,
2013-07-14 03:21:00,72.0,70.4,30.33,North,0,0.0,0.0,95,0.00,,---,0.00,VWS V14.00,2013-07-14 07:21:00,
2013-07-14 03:26:00,72.0,70.4,30.33,North,0,0.0,0.0,95,0.00,,---,0.00,VWS V14.00,2013-07-14 07:26:00,
2013-07-14 03:31:00,72.0,70.4,30.33,North,0,0.0,0.0,95,0.00,,---,0.00,VWS V14.00,2013-07-14 07:31:00,
2013-07-14 03:36:00,72.0,70.4,30.33,North,0,0.0,0.0,95,0.00,,---,0.00,VWS V14.00,2013-07-14 07:36:00,
2013-07-14 03:41:00,72.0,70.4,30.36,North,0,0.0,0.0,95,0.00,,---,0.00,VWS V14.00,2013-07-14 07:41:00,
2013-07-14 03:46:00,72.0,70.4,30.36,South,180,0.0,0.0,95,0.00,,---,0.00,VWS V14.00,2013-07-14 07:46:00,
2013-07-14 03:51:00,72.0,70.4,30.36,SE,135,0.0,0.0,95,0.00,,---,0.00,VWS V14.00,2013-07-14 07:51:00,
2013-07-14 03:56:00,72.0,70.4,30.33,SE,135,0.0,0.0,95,0.00,,---,0.00,VWS V14.00,2013-07-14 07:56:00,
2013-07-14 04:01:00,72.0,70.4,30.33,South,180,0.0,0.0,95,0.00,,---,0.00,VWS V14.00,2013-07-14 08:01:00,
2013-07-14 04:06:00,72.1,70.6,30.33,SSW,202,0.0,0.0,95,0.00,,---,0.00,VWS V14.00,2013-07-14 08:06:00,
2013-07-14 04:11:00,72.1,70.6,30.33,West,270,0.0,0.0,95,0.00,,---,0.00,VWS V14.00,2013-07-14 08:11:00,
2013-07-14 04:16:00,72.0,70.4,30.33,West,270,0.0,0.0,95,0.00,,---,0.00,VWS V14.00,2013-07-14 08:16:00,
2013-07-14 04:21:00,72.1,70.6,30.33,SSW,202,0.0,0.0,95,0.00,,---,0.00,VWS V14.00,2013-07-14 08:21:00,
2013-07-14 04:26:00,72.1,70.6,30.33,SW,225,0.0,0.0,95,0.00,,---,0.00,VWS V14.00,2013-07-14 08:26:00,
2013-07-14 04:31:00,72.1,70.6,30.33,SE,135,0.0,0.0,95,0.00,,---,0.00,VWS V14.00,2013-07-14 08:31:00,
2013-07-14 04:36:00,72.1,70.6,30.33,SSW,202,0.0,1.6,95,0.00,,---,0.00,VWS V14.00,2013-07-14 08:36:00,
2013-07-14 04:41:00,72.1,70.6,30.33,South,180,0.0,0.0,95,0.00,,---,0.00,VWS V14.00,2013-07-14 08:41:00,
2013-07-14 04:46:00,72.0,70.4,30.33,South,180,0.0,0.0,95,0.00,,---,0.00,VWS V14.00,2013-07-14 08:46:00,
2013-07-14 04:51:00,72.1,70.6,30.33,NW,315,0.0,0.0,95,0.00,,---,0.00,VWS V14.00,2013-07-14 08:51:00,
2013-07-14 04:56:00,72.1,70.6,30.33,West,270,0.0,0.0,95,0.00,,---,0.00,VWS V14.00,2013-07-14 08:56:00,
2013-07-14 05:01:00,72.1,70.6,30.33,West,270,0.0,0.0,95,0.00,,---,0.00,VWS V14.00,2013-07-14 09:01:00,
2013-07-14 05:06:00,72.1,70.6,30.33,ENE,68,0.0,0.0,95,0.00,,---,0.00,VWS V14.00,2013-07-14 09:06:00,
2013-07-14 05:11:00,72.1,70.6,30.33,NE,45,0.0,0.0,95,0.00,,---,0.00,VWS V14.00,2013-07-14 09:11:00,
2013-07-14 05:16:00,72.1,70.6,30.33,NE,45,0.0,0.0,95,0.00,,---,0.00,VWS V14.00,2013-07-14 09:16:00,
2013-07-14 05:21:00,72.1,70.6,30.33,NE,45,0.0,0.0,95,0.00,,---,0.00,VWS V14.00,2013-07-14 09:21:00,
2013-07-14 05:26:00,72.1,70.6,30.36,NE,45,0.0,0.0,95,0.00,,---,0.00,VWS V14.00,2013-07-14 09:26:00,
2013-07-14 05:31:00,72.1,70.6,30.36,NE,45,0.0,0.0,95,0.00,,---,0.00,VWS V14.00,2013-07-14 09:31:00,
2013-07-14 05:36:00,72.1,70.6,30.36,NE,45,0.0,0.0,95,0.00,,---,0.00,VWS V14.00,2013-07-14 09:36:00,
2013-07-14 05:41:00,72.1,70.6,30.36,South,180,1.1,1.1,95,0.00,,---,0.00,VWS V14.00,2013-07-14 09:41:00,
2013-07-14 05:46:00,72.1,70.6,30.36,ESE,112,0.0,0.0,95,0.00,,---,0.00,VWS V14.00,2013-07-14 09:46:00,
2013-07-14 05:51:00,72.1,70.6,30.36,ESE,112,0.0,0.0,95,0.00,,---,0.00,VWS V14.00,2013-07-14 09:51:00,
2013-07-14 05:56:00,72.3,70.8,30.36,ESE,112,0.0,0.0,95,0.00,,---,0.00,VWS V14.00,2013-07-14 09:56:00,
2013-07-14 06:01:00,72.3,70.8,30.36,East,90,0.0,0.0,95,0.00,,---,0.00,VWS V14.00,2013-07-14 10:01:00,
2013-07-14 06:06:00,72.3,70.8,30.36,East,90,0.0,0.0,95,0.00,,---,0.00,VWS V14.00,2013-07-14 10:06:00,
2013-07-14 06:11:00,72.1,70.6,30.36,East,90,0.0,0.0,95,0.00,,---,0.00,VWS V14.00,2013-07-14 10:11:00,
2013-07-14 06:16:00,72.1,70.6,30.36,East,90,0.0,0.0,95,0.00,,---,0.00,VWS V14.00,2013-07-14 10:16:00,
2013-07-14 06:21:00,72.3,70.8,30.36,East,90,0.0,0.0,95,0.00,,---,0.00,VWS V14.00,2013-07-14 10:21:00,
2013-07-14 06:26:00,72.3,70.8,30.36,East,90,0.0,0.0,95,0.00,,---,0.00,VWS V14.00,2013-07-14 10:26:00,
2013-07-14 06:31:00,72.3,70.8,30.36,SE,135,0.0,0.0,95,0.00,,---,0.00,VWS V14.00,2013-07-14 10:31:00,
2013-07-14 06:36:00,72.3,70.8,30.36,SSE,158,2.0,2.0,95,0.00,,---,0.00,VWS V14.00,2013-07-14 10:36:00,
2013-07-14 06:41:00,72.3,70.8,30.36,SE,135,0.0,0.0,95,0.00,,---,0.00,VWS V14.00,2013-07-14 10:41:00,
2013-07-14 06:46:00,72.5,71.0,30.36,SE,135,0.0,0.9,95,0.00,,---,0.00,VWS V14.00,2013-07-14 10:46:00,
2013-07-14 06:51:00,72.5,71.0,30.36,SE,135,0.0,0.0,95,0.00,,---,0.00,VWS V14.00,2013-07-14 10:51:00,
2013-07-14 06:56:00,72.7,71.2,30.36,SE,135,0.0,0.9,95,0.00,,---,0.00,VWS V14.00,2013-07-14 10:56:00,
2013-07-14 07:01:00,72.9,71.3,30.36,ESE,112,0.0,0.0,95,0.00,,---,0.00,VWS V14.00,2013-07-14 11:01:00,
2013-07-14 07:06:00,72.9,71.3,30.36,ESE,112,0.0,0.0,95,0.00,,---,0.00,VWS V14.00,2013-07-14 11:06:00,
2013-07-14 07:11:00,73.0,71.5,30.36,ESE,112,0.0,0.0,95,0.00,,---,0.00,VWS V14.00,2013-07-14 11:11:00,
2013-07-14 07:16:00,73.2,71.7,30.36,ESE,112,0.0,0.0,95,0.00,,---,0.00,VWS V14.00,2013-07-14 11:16:00,
2013-07-14 07:21:00,73.4,71.9,30.36,ESE,112,0.0,0.0,95,0.00,,---,0.00,VWS V14.00,2013-07-14 11:21:00,
2013-07-14 07:26:00,74.1,72.6,30.36,ESE,112,0.0,0.0,95,0.00,,---,0.00,VWS V14.00,2013-07-14 11:26:00,
2013-07-14 07:31:00,75.0,73.5,30.36,SE,135,0.0,0.0,95,0.00,,---,0.00,VWS V14.00,2013-07-14 11:31:00,
2013-07-14 07:36:00,75.9,74.4,30.36,ESE,112,0.0,0.0,95,0.00,,---,0.00,VWS V14.00,2013-07-14 11:36:00,
2013-07-14 07:41:00,76.6,75.1,30.36,East,90,0.0,0.0,95,0.00,,---,0.00,VWS V14.00,2013-07-14 11:41:00,
2013-07-14 07:46:00,77.4,75.5,30.36,SSW,202,0.0,0.0,94,0.00,,---,0.00,VWS V14.00,2013-07-14 11:46:00,
2013-07-14 07:51:00,77.9,76.0,30.36,ENE,68,0.0,0.0,94,0.00,,---,0.00,VWS V14.00,2013-07-14 11:51:00,
2013-07-14 07:56:00,78.6,76.8,30.36,SSE,158,0.0,0.0,94,0.00,,---,0.00,VWS V14.00,2013-07-14 11:56:00,
2013-07-14 08:01:00,79.2,77.0,30.36,SW,225,0.0,0.0,93,0.00,,---,0.00,VWS V14.00,2013-07-14 12:01:00,
2013-07-14 08:06:00,80.1,77.5,30.36,SSW,202,0.0,0.0,92,0.00,,---,0.00,VWS V14.00,2013-07-14 12:06:00,
2013-07-14 08:11:00,80.6,77.4,30.36,ESE,112,0.0,0.0,90,0.00,,---,0.00,VWS V14.00,2013-07-14 12:11:00,
2013-07-14 08:16:00,80.8,77.2,30.36,South,180,0.0,0.0,89,0.00,,---,0.00,VWS V14.00,2013-07-14 12:16:00,
2013-07-14 08:21:00,79.3,75.5,30.36,ESE,112,0.0,0.0,88,0.00,,---,0.00,VWS V14.00,2013-07-14 12:21:00,
2013-07-14 08:26:00,80.6,76.7,30.36,East,90,0.0,0.0,88,0.00,,---,0.00,VWS V14.00,2013-07-14 12:26:00,
2013-07-14 08:31:00,80.6,76.4,30.36,SE,135,0.0,0.0,87,0.00,,---,0.00,VWS V14.00,2013-07-14 12:31:00,
2013-07-14 08:36:00,79.5,74.3,30.36,ESE,112,0.0,0.0,84,0.00,,---,0.00,VWS V14.00,2013-07-14 12:36:00,
2013-07-14 08:41:00,79.3,74.4,30.36,ESE,112,0.0,0.0,85,0.00,,---,0.00,VWS V14.00,2013-07-14 12:41:00,
2013-07-14 08:46:00,79.7,75.2,30.36,ESE,112,0.0,0.0,86,0.00,,---,0.00,VWS V14.00,2013-07-14 12:46:00,
2013-07-14 08:51:00,80.4,75.8,30.36,SSE,158,0.0,0.0,86,0.00,,---,0.00,VWS V14.00,2013-07-14 12:51:00,
2013-07-14 08:56:00,80.8,73.7,30.36,SW,225,1.3,2.0,79,0.00,,---,0.00,VWS V14.00,2013-07-14 12:56:00,
2013-07-14 09:01:00,80.8,73.7,30.36,East,90,0.0,0.0,79,0.00,,---,0.00,VWS V14.00,2013-07-14 13:01:00,
2013-07-14 09:06:00,80.6,74.2,30.36,East,90,1.3,1.3,81,0.00,,---,0.00,VWS V14.00,2013-07-14 13:06:00,
2013-07-14 09:11:00,80.1,73.3,30.36,ENE,68,0.0,0.0,80,0.00,,---,0.00,VWS V14.00,2013-07-14 13:11:00,
2013-07-14 09:16:00,79.5,72.4,30.36,SE,135,1.6,2.7,79,0.00,,---,0.00,VWS V14.00,2013-07-14 13:16:00,
2013-07-14 09:21:00,79.5,72.8,30.36,SE,135,2.2,2.2,80,0.00,,---,0.00,VWS V14.00,2013-07-14 13:21:00,
2013-07-14 09:26:00,79.5,72.8,30.36,ESE,112,0.9,0.9,80,0.00,,---,0.00,VWS V14.00,2013-07-14 13:26:00,
2013-07-14 09:31:00,79.5,73.2,30.36,South,180,0.0,0.0,81,0.00,,---,0.00,VWS V14.00,2013-07-14 13:31:00,
2013-07-14 09:36:00,79.3,73.0,30.36,East,90,2.0,2.0,81,0.00,,---,0.00,VWS V14.00,2013-07-14 13:36:00,
2013-07-14 09:41:00,79.5,72.8,30.36,East,90,1.3,1.3,80,0.00,,---,0.00,VWS V14.00,2013-07-14 13:41:00,
2013-07-14 09:46:00,79.5,72.8,30.36,ESE,112,0.0,0.0,80,0.00,,---,0.00,VWS V14.00,2013-07-14 13:46:00,
2013-07-14 09:51:00,80.2,73.5,30.36,SE,135,1.1,1.1,80,0.00,,---,0.00,VWS V14.00,2013-07-14 13:51:00,
2013-07-14 09:55:00,81.3,73.4,30.36,SSW,202,0.0,4.3,77,0.00,,---,0.00,VWS V14.00,2013-07-14 13:55:00,
2013-07-14 10:00:00,82.2,74.3,30.36,SSW,202,1.3,3.1,77,0.00,,---,0.00,VWS V14.00,2013-07-14 14:00:00,
2013-07-14 10:05:00,82.8,74.4,30.36,SE,135,0.0,2.5,76,0.00,,---,0.00,VWS V14.00,2013-07-14 14:05:00,
2013-07-14 10:10:00,82.4,73.7,30.36,ESE,112,1.1,3.4,75,0.00,,---,0.00,VWS V14.00,2013-07-14 14:10:00,
2013-07-14 10:15:00,83.1,74.0,30.36,SSE,158,0.0,1.1,74,0.00,,---,0.00,VWS V14.00,2013-07-14 14:15:00,
2013-07-14 10:20:00,84.4,74.4,30.36,SE,135,1.1,2.9,72,0.00,,---,0.00,VWS V14.00,2013-07-14 14:20:00,
2013-07-14 10:25:00,83.5,72.7,30.36,South,180,2.5,3.4,70,0.00,,---,0.00,VWS V14.00,2013-07-14 14:25:00,
2013-07-14 10:30:00,84.7,73.9,30.36,South,180,0.0,2.9,70,0.00,,---,0.00,VWS V14.00,2013-07-14 14:30:00,
2013-07-14 10:35:00,84.9,73.2,30.36,SE,135,1.6,3.6,68,0.00,,---,0.00,VWS V14.00,2013-07-14 14:35:00,
2013-07-14 10:40:00,84.9,72.8,30.36,SSE,158,2.2,2.7,67,0.00,,---,0.00,VWS V14.00,2013-07-14 14:40:00,
2013-07-14 10:45:00,85.3,73.1,30.36,East,90,1.1,3.6,67,0.00,,---,0.00,VWS V14.00,2013-07-14 14:45:00,
2013-07-14 10:50:00,87.4,74.7,30.36,SSW,202,2.2,2.9,66,0.00,,---,0.00,VWS V14.00,2013-07-14 14:50:00,
2013-07-14 10:55:00,87.3,73.6,30.36,SE,135,2.5,3.6,64,0.00,,---,0.00,VWS V14.00,2013-07-14 14:55:00,
2013-07-14 11:00:00,86.9,72.8,30.36,ESE,112,2.0,4.3,63,0.00,,---,0.00,VWS V14.00,2013-07-14 15:00:00,
2013-07-14 11:05:00,86.0,71.9,30.36,SSW,202,1.6,4.0,63,0.00,,---,0.00,VWS V14.00,2013-07-14 15:05:00,
2013-07-14 11:10:00,85.5,72.4,30.36,WSW,248,0.0,0.0,65,0.00,,---,0.00,VWS V14.00,2013-07-14 15:10:00,
2013-07-14 11:15:00,86.0,73.3,30.36,East,90,3.6,3.6,66,0.00,,---,0.00,VWS V14.00,2013-07-14 15:15:00,
2013-07-14 11:20:00,85.6,72.5,30.36,SSW,202,2.7,2.7,65,0.00,,---,0.00,VWS V14.00,2013-07-14 15:20:00,
2013-07-14 11:25:00,86.5,73.8,30.36,East,90,2.9,4.3,66,0.00,,---,0.00,VWS V14.00,2013-07-14 15:25:00,
2013-07-14 11:30:00,85.5,73.3,30.36,East,90,0.0,2.7,67,0.00,,---,0.00,VWS V14.00,2013-07-14 15:30:00,
2013-07-14 11:35:00,84.9,72.8,30.36,SSW,202,1.3,1.3,67,0.00,,---,0.00,VWS V14.00,2013-07-14 15:35:00,
2013-07-14 11:40:00,86.0,73.3,30.36,SE,135,0.0,2.2,66,0.00,,---,0.00,VWS V14.00,2013-07-14 15:40:00,
2013-07-14 11:45:00,86.9,74.2,30.36,East,90,0.0,0.0,66,0.00,,---,0.00,VWS V14.00,2013-07-14 15:45:00,
2013-07-14 11:50:00,88.3,74.2,30.36,South,180,1.1,3.1,63,0.00,,---,0.00,VWS V14.00,2013-07-14 15:50:00,
2013-07-14 11:55:00,88.3,72.7,30.36,ESE,112,0.0,2.7,60,0.00,,---,0.00,VWS V14.00,2013-07-14 15:55:00,
2013-07-14 12:00:00,89.4,74.2,30.36,East,90,1.3,2.7,61,0.00,,---,0.00,VWS V14.00,2013-07-14 16:00:00,
2013-07-14 12:05:00,88.3,72.7,30.36,ESE,112,0.0,2.0,60,0.00,,---,0.00,VWS V14.00,2013-07-14 16:05:00,
2013-07-14 12:10:00,89.1,73.4,30.36,ESE,112,0.0,0.0,60,0.00,,---,0.00,VWS V14.00,2013-07-14 16:10:00,
2013-07-14 12:15:00,88.9,73.2,30.36,SW,225,2.0,3.6,60,0.00,,---,0.00,VWS V14.00,2013-07-14 16:15:00,
2013-07-14 12:20:00,89.6,74.4,30.36,South,180,3.6,3.6,61,0.00,,---,0.00,VWS V14.00,2013-07-14 16:20:00,
2013-07-14 12:25:00,89.6,74.4,30.36,SSE,158,2.0,2.7,61,0.00,,---,0.00,VWS V14.00,2013-07-14 16:25:00,
2013-07-14 12:30:00,89.6,74.4,30.36,South,180,0.0,2.5,61,0.00,,---,0.00,VWS V14.00,2013-07-14 16:30:00,
2013-07-14 12:35:00,89.6,74.4,30.36,SE,135,0.0,0.0,61,0.00,,---,0.00,VWS V14.00,2013-07-14 16:35:00,
2013-07-14 12:40:00,87.8,71.7,30.36,SSW,202,2.9,2.9,59,0.00,,---,0.00,VWS V14.00,2013-07-14 16:40:00,
2013-07-14 12:45:00,87.1,72.5,30.36,ESE,112,0.0,2.0,62,0.00,,---,0.00,VWS V14.00,2013-07-14 16:45:00,
2013-07-14 12:50:00,87.3,72.7,30.36,SSW,202,3.4,3.4,62,0.00,,---,0.00,VWS V14.00,2013-07-14 16:50:00,
2013-07-14 12:55:00,88.7,73.5,30.36,SW,225,2.9,4.0,61,0.00,,---,0.00,VWS V14.00,2013-07-14 16:55:00,
2013-07-14 13:00:00,87.6,73.9,30.36,SSW,202,0.0,0.0,64,0.00,,---,0.00,VWS V14.00,2013-07-14 17:00:00,
2013-07-14 13:05:00,86.2,72.1,30.36,WNW,292,2.5,3.6,63,0.00,,---,0.00,VWS V14.00,2013-07-14 17:05:00,
2013-07-14 13:10:00,85.8,72.7,30.36,SE,135,0.0,0.0,65,0.00,,---,0.00,VWS V14.00,2013-07-14 17:10:00,
2013-07-14 13:15:00,87.3,73.6,30.36,West,270,2.9,3.4,64,0.00,,---,0.00,VWS V14.00,2013-07-14 17:15:00,
2013-07-14 13:20:00,89.4,75.2,30.36,ENE,68,0.0,1.3,63,0.00,,---,0.00,VWS V14.00,2013-07-14 17:20:00,
2013-07-14 13:25:00,90.5,73.2,30.36,SW,225,2.0,2.7,57,0.00,,---,0.00,VWS V14.00,2013-07-14 17:25:00,
2013-07-14 13:30:00,91.6,72.6,30.36,SSE,158,1.6,4.9,54,0.00,,---,0.00,VWS V14.00,2013-07-14 17:30:00,
2013-07-14 13:35:00,89.8,70.4,30.36,SE,135,0.0,1.1,53,0.00,,---,0.00,VWS V14.00,2013-07-14 17:35:00,
2013-07-14 13:40:00,88.0,72.4,30.33,SW,225,2.9,2.9,60,0.00,,---,0.00,VWS V14.00,2013-07-14 17:40:00,
2013-07-14 13:45:00,86.7,70.7,30.33,SE,135,0.0,2.2,59,0.00,,---,0.00,VWS V14.00,2013-07-14 17:45:00,
2013-07-14 13:50:00,88.7,73.0,30.33,ESE,112,0.0,0.0,60,0.00,,---,0.00,VWS V14.00,2013-07-14 17:50:00,
2013-07-14 13:55:00,91.0,75.2,30.36,SE,135,0.0,0.0,60,0.00,,---,0.00,VWS V14.00,2013-07-14 17:55:00,
2013-07-14 14:00:00,92.1,73.1,30.36,SSW,202,3.1,3.1,54,0.00,,---,0.00,VWS V14.00,2013-07-14 18:00:00,
2013-07-14 14:05:00,91.0,72.1,30.36,SSE,158,2.7,3.8,54,0.00,,---,0.00,VWS V14.00,2013-07-14 18:05:00,
2013-07-14 14:10:00,91.9,75.1,30.33,NW,315,0.0,2.5,58,0.00,,---,0.00,VWS V14.00,2013-07-14 18:10:00,
2013-07-14 14:15:00,92.8,72.1,30.33,SW,225,1.6,3.4,51,0.00,,---,0.00,VWS V14.00,2013-07-14 18:15:00,
2013-07-14 14:20:00,93.2,74.6,30.33,ESE,112,0.0,3.1,55,0.00,,---,0.00,VWS V14.00,2013-07-14 18:20:00,
2013-07-14 14:25:00,93.2,71.8,30.33,WSW,248,4.0,4.0,50,0.00,,---,0.00,VWS V14.00,2013-07-14 18:25:00,
2013-07-14 14:30:00,93.2,73.0,30.33,South,180,3.8,3.8,52,0.00,,---,0.00,VWS V14.00,2013-07-14 18:30:00,
2013-07-14 14:35:00,93.9,71.3,30.33,SSW,202,1.3,2.5,48,0.00,,---,0.00,VWS V14.00,2013-07-14 18:35:00,
2013-07-14 14:40:00,93.7,70.5,30.33,South,180,3.4,3.4,47,0.00,,---,0.00,VWS V14.00,2013-07-14 18:40:00,
2013-07-14 14:45:00,92.7,73.0,30.33,ESE,112,0.0,0.0,53,0.00,,---,0.00,VWS V14.00,2013-07-14 18:45:00,
2013-07-14 14:50:00,93.6,72.7,30.33,South,180,3.4,3.4,51,0.00,,---,0.00,VWS V14.00,2013-07-14 18:50:00,
2013-07-14 14:55:00,95.0,72.2,30.33,ENE,68,3.1,3.1,48,0.00,,---,0.00,VWS V14.00,2013-07-14 18:55:00,
2013-07-14 15:00:00,95.2,73.0,30.33,WNW,292,1.1,2.5,49,0.00,,---,0.00,VWS V14.00,2013-07-14 19:00:00,
2013-07-14 15:05:00,93.0,71.6,30.33,East,90,0.9,0.9,50,0.00,,---,0.00,VWS V14.00,2013-07-14 19:05:00,
2013-07-14 15:10:00,93.2,72.4,30.33,ENE,68,0.0,0.0,51,0.00,,---,0.00,VWS V14.00,2013-07-14 19:10:00,
2013-07-14 15:15:00,91.6,72.0,30.33,West,270,0.0,0.0,53,0.00,,---,0.00,VWS V14.00,2013-07-14 19:15:00,
2013-07-14 15:20:00,91.0,71.0,30.33,South,180,1.3,1.3,52,0.00,,---,0.00,VWS V14.00,2013-07-14 19:20:00,
2013-07-14 15:25:00,90.0,72.2,30.33,East,90,0.0,0.0,56,0.00,,---,0.00,VWS V14.00,2013-07-14 19:25:00,
2013-07-14 15:30:00,89.8,72.5,30.33,SSE,158,0.0,0.0,57,0.00,,---,0.00,VWS V14.00,2013-07-14 19:30:00,
2013-07-14 15:35:00,90.9,74.1,30.33,East,90,0.0,0.0,58,0.00,,---,0.00,VWS V14.00,2013-07-14 19:35:00,
2013-07-14 15:40:00,91.8,75.4,30.30,NE,45,0.9,0.9,59,0.00,,---,0.00,VWS V14.00,2013-07-14 19:40:00,
2013-07-14 15:45:00,94.1,75.5,30.30,South,180,2.0,2.2,55,0.00,,---,0.00,VWS V14.00,2013-07-14 19:45:00,
2013-07-14 15:50:00,94.8,73.9,30.30,East,90,0.0,0.9,51,0.00,,---,0.00,VWS V14.00,2013-07-14 19:50:00,
2013-07-14 15:55:00,95.9,73.1,30.30,NW,315,1.3,2.2,48,0.00,,---,0.00,VWS V14.00,2013-07-14 19:55:00,
2013-07-14 16:00:00,93.0,72.2,30.30,SSW,202,3.6,4.9,51,0.00,,---,0.00,VWS V14.00,2013-07-14 20:00:00,
2013-07-14 16:05:00,89.8,68.1,30.30,SE,135,0.0,0.0,49,0.00,,---,0.00,VWS V14.00,2013-07-14 20:05:00,
2013-07-14 16:10:00,87.8,70.7,30.30,SE,135,0.0,0.0,57,0.00,,---,0.00,VWS V14.00,2013-07-14 20:10:00,
2013-07-14 16:15:00,86.9,71.3,30.30,SE,135,0.0,0.0,60,0.00,,---,0.00,VWS V14.00,2013-07-14 20:15:00,
2013-07-14 16:20:00,85.8,73.2,30.30,SE,135,0.0,0.0,66,0.00,,---,0.00,VWS V14.00,2013-07-14 20:20:00,
2013-07-14 16:25:00,85.6,73.0,30.30,SE,135,0.0,0.0,66,0.00,,---,0.00,VWS V14.00,2013-07-14 20:25:00,
2013-07-14 16:30:00,85.3,73.5,30.30,SE,135,0.0,0.0,68,0.00,,---,0.00,VWS V14.00,2013-07-14 20:30:00,
2013-07-14 16:35:00,85.1,74.6,30.30,SE,135,0.0,0.0,71,0.00,,---,0.00,VWS V14.00,2013-07-14 20:35:00,
2013-07-14 16:40:00,85.1,74.2,30.30,SE,135,0.0,0.0,70,0.00,,---,0.00,VWS V14.00,2013-07-14 20:40:00,
2013-07-14 16:45:00,85.5,74.6,30.30,SE,135,0.0,0.0,70,0.00,,---,0.00,VWS V14.00,2013-07-14 20:45:00,
2013-07-14 16:50:00,85.8,75.3,30.30,SE,135,0.0,0.0,71,0.00,,---,0.00,VWS V14.00,2013-07-14 20:50:00,
2013-07-14 16:55:00,86.5,76.0,30.30,SE,135,0.0,0.0,71,0.00,,---,0.00,VWS V14.00,2013-07-14 20:55:00,
2013-07-14 17:00:00,86.2,75.7,30.30,SE,135,0.0,0.0,71,0.00,,---,0.00,VWS V14.00,2013-07-14 21:00:00,
2013-07-14 17:05:00,86.9,75.5,30.30,SE,135,0.0,1.1,69,0.00,,---,0.00,VWS V14.00,2013-07-14 21:05:00,
2013-07-14 17:10:00,86.4,75.4,30.30,ESE,112,0.0,0.0,70,0.00,,---,0.00,VWS V14.00,2013-07-14 21:10:00,
2013-07-14 17:15:00,85.8,75.3,30.30,ESE,112,0.0,0.0,71,0.00,,---,0.00,VWS V14.00,2013-07-14 21:15:00,
2013-07-14 17:20:00,86.0,75.1,30.30,ESE,112,0.0,0.0,70,0.00,,---,0.00,VWS V14.00,2013-07-14 21:20:00,
2013-07-14 17:25:00,86.7,76.6,30.30,ESE,112,0.0,0.0,72,0.00,,---,0.00,VWS V14.00,2013-07-14 21:25:00,
2013-07-14 17:30:00,87.3,76.7,30.30,SW,225,0.0,0.0,71,0.00,,---,0.00,VWS V14.00,2013-07-14 21:30:00,
2013-07-14 17:35:00,88.9,77.8,30.30,SE,135,0.0,0.0,70,0.00,,---,0.00,VWS V14.00,2013-07-14 21:35:00,
2013-07-14 17:40:00,89.6,76.3,30.30,SE,135,0.0,0.0,65,0.00,,---,0.00,VWS V14.00,2013-07-14 21:40:00,
2013-07-14 17:45:00,88.3,74.6,30.30,South,180,0.0,3.1,64,0.00,,---,0.00,VWS V14.00,2013-07-14 21:45:00,
2013-07-14 17:50:00,87.4,73.3,30.30,SSW,202,0.0,1.3,63,0.00,,---,0.00,VWS V14.00,2013-07-14 21:50:00,
2013-07-14 17:55:00,86.4,73.7,30.30,South,180,3.4,3.4,66,0.00,,---,0.00,VWS V14.00,2013-07-14 21:55:00,
2013-07-14 18:00:00,85.8,73.2,30.30,SSW,202,0.0,1.3,66,0.00,,---,0.00,VWS V14.00,2013-07-14 22:00:00,
2013-07-14 18:05:00,85.5,73.3,30.30,NNW,338,0.0,0.0,67,0.00,,---,0.00,VWS V14.00,2013-07-14 22:05:00,
2013-07-14 18:10:00,85.1,71.6,30.27,SW,225,1.3,2.2,64,0.00,,---,0.00,VWS V14.00,2013-07-14 22:10:00,
2013-07-14 18:15:00,84.7,72.1,30.27,SW,225,2.2,2.2,66,0.00,,---,0.00,VWS V14.00,2013-07-14 22:15:00,
2013-07-14 18:20:00,84.0,71.9,30.27,SE,135,0.0,0.0,67,0.00,,---,0.00,VWS V14.00,2013-07-14 22:20:00,
2013-07-14 18:25:00,83.7,72.4,30.30,WSW,248,2.5,2.5,69,0.00,,---,0.00,VWS V14.00,2013-07-14 22:25:00,
2013-07-14 18:30:00,83.5,72.2,30.30,SE,135,0.0,0.0,69,0.00,,---,0.00,VWS V14.00,2013-07-14 22:30:00,
2013-07-14 18:35:00,82.8,72.8,30.30,ESE,112,0.0,0.0,72,0.00,,---,0.00,VWS V14.00,2013-07-14 22:35:00,
2013-07-14 18:40:00,82.2,72.7,30.30,SE,135,0.0,0.0,73,0.00,,---,0.00,VWS V14.00,2013-07-14 22:40:00,
2013-07-14 18:45:00,82.2,73.1,30.30,NE,45,0.0,0.0,74,0.00,,---,0.00,VWS V14.00,2013-07-14 22:45:00,
2013-07-14 18:50:00,81.7,72.6,30.30,NE,45,0.0,0.0,74,0.00,,---,0.00,VWS V14.00,2013-07-14 22:50:00,
2013-07-14 18:55:00,81.1,73.2,30.27,NE,45,0.0,0.0,77,0.00,,---,0.00,VWS V14.00,2013-07-14 22:55:00,
2013-07-14 19:00:00,80.8,73.3,30.27,NE,45,0.0,0.0,78,0.00,,---,0.00,VWS V14.00,2013-07-14 23:00:00,
2013-07-14 19:05:00,80.2,73.1,30.27,NE,45,0.0,0.0,79,0.00,,---,0.00,VWS V14.00,2013-07-14 23:05:00,
2013-07-14 19:10:00,79.9,73.5,30.27,NE,45,0.0,0.0,81,0.00,,---,0.00,VWS V14.00,2013-07-14 23:10:00,
2013-07-14 19:15:00,79.5,73.2,30.27,NE,45,0.0,0.0,81,0.00,,---,0.00,VWS V14.00,2013-07-14 23:15:00,
2013-07-14 19:20:00,79.0,73.0,30.27,NE,45,0.0,0.0,82,0.00,,---,0.00,VWS V14.00,2013-07-14 23:20:00,
2013-07-14 19:25:00,78.6,73.0,30.30,NE,45,0.0,0.0,83,0.00,,---,0.00,VWS V14.00,2013-07-14 23:25:00,
2013-07-14 19:30:00,78.3,73.0,30.30,NE,45,0.0,0.0,84,0.00,,---,0.00,VWS V14.00,2013-07-14 23:30:00,
2013-07-14 19:35:00,78.1,72.5,30.30,NE,45,0.0,0.0,83,0.00,,---,0.00,VWS V14.00,2013-07-14 23:35:00,
2013-07-14 19:40:00,77.9,72.7,30.27,NE,45,0.0,0.0,84,0.00,,---,0.00,VWS V14.00,2013-07-14 23:40:00,
2013-07-14 19:45:00,77.7,72.8,30.27,NE,45,0.0,0.0,85,0.00,,---,0.00,VWS V14.00,2013-07-14 23:45:00,
2013-07-14 19:50:00,77.5,72.7,30.27,NE,45,0.0,0.0,85,0.00,,---,0.00,VWS V14.00,2013-07-14 23:50:00,
2013-07-14 19:55:00,77.4,72.5,30.27,NE,45,0.0,0.0,85,0.00,,---,0.00,VWS V14.00,2013-07-14 23:55:00,
2013-07-14 20:00:00,77.0,72.2,30.27,NE,45,0.0,0.0,85,0.00,,---,0.00,VWS V14.00,2013-07-15 00:00:00,
2013-07-14 20:05:00,76.8,72.3,30.27,NE,45,0.0,0.0,86,0.00,,---,0.00,VWS V14.00,2013-07-15 00:05:00,
2013-07-14 20:10:00,76.5,72.0,30.30,NE,45,0.0,0.0,86,0.00,,---,0.00,VWS V14.00,2013-07-15 00:10:00,
2013-07-14 20:15:00,76.3,71.8,30.30,NE,45,0.0,0.0,86,0.00,,---,0.00,VWS V14.00,2013-07-15 00:15:00,
2013-07-14 20:20:00,75.9,71.4,30.30,NE,45,0.0,0.0,86,0.00,,---,0.00,VWS V14.00,2013-07-15 00:20:00,
2013-07-14 20:25:00,75.7,71.3,30.27,NE,45,0.0,0.0,86,0.00,,---,0.00,VWS V14.00,2013-07-15 00:25:00,
2013-07-14 20:30:00,75.6,71.4,30.27,NE,45,0.0,0.0,87,0.00,,---,0.00,VWS V14.00,2013-07-15 00:30:00,
2013-07-14 20:35:00,75.4,71.2,30.27,NE,45,0.0,0.0,87,0.00,,---,0.00,VWS V14.00,2013-07-15 00:35:00,
2013-07-14 20:40:00,75.2,71.1,30.30,NE,45,0.0,0.0,87,0.00,,---,0.00,VWS V14.00,2013-07-15 00:40:00,
2013-07-14 20:45:00,74.8,71.1,30.30,NE,45,0.0,0.0,88,0.00,,---,0.00,VWS V14.00,2013-07-15 00:45:00,
2013-07-14 20:50:00,74.7,70.9,30.30,NE,45,0.0,0.0,88,0.00,,---,0.00,VWS V14.00,2013-07-15 00:50:00,
2013-07-14 20:55:00,74.5,71.0,30.30,NE,45,0.0,0.0,89,0.00,,---,0.00,VWS V14.00,2013-07-15 00:55:00,
2013-07-14 21:00:00,74.3,70.8,30.30,NE,45,0.0,0.0,89,0.00,,---,0.00,VWS V14.00,2013-07-15 01:00:00,
2013-07-14 21:05:00,74.1,70.7,30.30,NE,45,0.0,0.0,89,0.00,,---,0.00,VWS V14.00,2013-07-15 01:05:00,
2013-07-14 21:10:00,74.1,70.7,30.30,NE,45,0.0,0.0,89,0.00,,---,0.00,VWS V14.00,2013-07-15 01:10:00,
2013-07-14 21:15:00,73.9,70.5,30.30,NE,45,0.0,0.0,89,0.00,,---,0.00,VWS V14.00,2013-07-15 01:15:00,
2013-07-14 21:20:00,73.8,70.7,30.30,NE,45,0.0,0.0,90,0.00,,---,0.00,VWS V14.00,2013-07-15 01:20:00,
2013-07-14 21:25:00,73.6,70.5,30.30,NE,45,0.0,0.0,90,0.00,,---,0.00,VWS V14.00,2013-07-15 01:25:00,
2013-07-14 21:30:00,73.4,70.3,30.30,NE,45,0.0,0.0,90,0.00,,---,0.00,VWS V14.00,2013-07-15 01:30:00,
2013-07-14 21:35:00,73.4,70.3,30.30,NE,45,0.0,0.0,90,0.00,,---,0.00,VWS V14.00,2013-07-15 01:35:00,
2013-07-14 21:40:00,73.2,70.4,30.30,NE,45,0.0,0.0,91,0.00,,---,0.00,VWS V14.00,2013-07-15 01:40:00,
2013-07-14 21:45:00,73.0,70.3,30.30,NE,45,0.0,0.0,91,0.00,,---,0.00,VWS V14.00,2013-07-15 01:45:00,
2013-07-14 21:50:00,72.9,70.1,30.30,NE,45,0.0,0.0,91,0.00,,---,0.00,VWS V14.00,2013-07-15 01:50:00,
2013-07-14 21:55:00,72.9,70.1,30.30,NE,45,0.0,0.0,91,0.00,,---,0.00,VWS V14.00,2013-07-15 01:55:00,
2013-07-14 22:00:00,72.7,70.2,30.30,NE,45,0.0,0.0,92,0.00,,---,0.00,VWS V14.00,2013-07-15 02:00:00,
2013-07-14 22:05:00,72.7,70.2,30.30,NE,45,0.0,0.0,92,0.00,,---,0.00,VWS V14.00,2013-07-15 02:05:00,
2013-07-14 22:10:00,72.5,70.1,30.30,NE,45,0.0,0.0,92,0.00,,---,0.00,VWS V14.00,2013-07-15 02:10:00,
2013-07-14 22:15:00,72.5,70.1,30.30,NE,45,0.0,0.0,92,0.00,,---,0.00,VWS V14.00,2013-07-15 02:15:00,
2013-07-14 22:20:00,72.5,70.1,30.30,NE,45,0.0,0.0,92,0.00,,---,0.00,VWS V14.00,2013-07-15 02:20:00,
2013-07-14 22:25:00,72.5,70.1,30.30,NE,45,0.0,0.0,92,0.00,,---,0.00,VWS V14.00,2013-07-15 02:25:00,
2013-07-14 22:30:00,72.5,70.1,30.30,NE,45,0.0,0.0,92,0.00,,---,0.00,VWS V14.00,2013-07-15 02:30:00,
2013-07-14 22:35:00,72.5,70.1,30.30,NE,45,0.0,0.0,92,0.00,,---,0.00,VWS V14.00,2013-07-15 02:35:00,
2013-07-14 22:40:00,72.5,70.4,30.30,NE,45,0.0,0.0,93,0.00,,---,0.00,VWS V14.00,2013-07-15 02:40:00,
2013-07-14 22:45:00,72.5,70.4,30.30,NE,45,0.0,0.0,93,0.00,,---,0.00,VWS V14.00,2013-07-15 02:45:00,
2013-07-14 22:50:00,72.3,70.2,30.30,NE,45,0.0,0.0,93,0.00,,---,0.00,VWS V14.00,2013-07-15 02:50:00,
2013-07-14 22:55:00,72.3,70.2,30.30,NE,45,0.0,0.0,93,0.00,,---,0.00,VWS V14.00,2013-07-15 02:55:00,
2013-07-14 23:00:00,72.3,70.2,30.30,NE,45,0.0,0.0,93,0.00,,---,0.00,VWS V14.00,2013-07-15 03:00:00,
2013-07-14 23:05:00,72.3,70.2,30.30,NE,45,0.0,0.0,93,0.00,,---,0.00,VWS V14.00,2013-07-15 03:05:00,
2013-07-14 23:10:00,72.3,70.2,30.30,NE,45,0.0,0.0,93,0.00,,---,0.00,VWS V14.00,2013-07-15 03:10:00,
2013-07-14 23:15:00,72.3,70.2,30.30,NE,45,0.0,0.0,93,0.00,,---,0.00,VWS V14.00,2013-07-15 03:15:00,
2013-07-14 23:20:00,72.1,70.0,30.30,NE,45,0.0,0.0,93,0.00,,---,0.00,VWS V14.00,2013-07-15 03:20:00,
2013-07-14 23:25:00,72.1,70.0,30.30,NE,45,0.0,0.0,93,0.00,,---,0.00,VWS V14.00,2013-07-15 03:25:00,
2013-07-14 23:30:00,72.1,70.0,30.30,NE,45,0.0,0.0,93,0.00,,---,0.00,VWS V14.00,2013-07-15 03:30:00,
2013-07-14 23:35:00,72.0,69.8,30.30,NE,45,0.0,0.0,93,0.00,,---,0.00,VWS V14.00,2013-07-15 03:35:00,
2013-07-14 23:40:00,72.0,69.8,30.30,NE,45,0.0,0.0,93,0.00,,---,0.00,VWS V14.00,2013-07-15 03:40:00,
2013-07-14 23:45:00,71.8,69.7,30.30,NE,45,0.0,0.0,93,0.00,,---,0.00,VWS V14.00,2013-07-15 03:45:00,
2013-07-14 23:50:00,71.6,69.5,30.30,NE,45,0.0,0.0,93,0.00,,---,0.00,VWS V14.00,2013-07-15 03:50:00,
2013-07-14 23:55:00,71.4,69.6,30.30,NE,45,0.0,0.0,94,0.00,,---,0.00,VWS V14.00,2013-07-15 03:55:00,